Location: Namasale
(1.5000°N, 32.6167°E)
Time: 02:44:40
(UTC+00:00)

Vanguard 1 - Visible Passes

Search period start: 21 April 2021 00:00
Search period end: 01 May 2021 00:00
Orbit: 648 x 3834 km, 34.3° (Epoch: 20 April)

Date Brightness Start Highest point End Pass type
(mag) Time Alt. Az. Time Alt. Az. Time Alt. Az.
21 Apr 12.6 17:24:04 10° NW 17:46:43 51° NNE 17:54:09 38° ENE visible
21 Apr 12.7 19:51:53 10° WNW 20:06:52 50° WNW 20:06:52 50° WNW visible
22 Apr 12.4 17:45:23 10° NW 18:08:44 63° NE 18:14:01 51° E visible
22 Apr 13.1 20:14:14 10° WNW 20:26:45 38° W 20:26:45 38° W visible
23 Apr 13.5 15:41:08 10° NW 16:01:24 36° NNE 16:19:42 10° E visible
23 Apr 12.2 18:06:48 10° NW 18:30:29 77° NE 18:33:55 66° E visible
23 Apr 13.4 20:37:08 10° WNW 20:46:39 28° W 20:46:39 28° W visible
24 Apr 13.3 16:02:20 10° NW 16:23:57 44° NNE 16:41:08 13° E visible
24 Apr 12.2 18:28:25 10° NW 18:52:01 87° SW 18:53:51 79° SE visible
24 Apr 13.7 21:00:43 10° W 21:06:35 19° W 21:06:35 19° W visible
25 Apr 13.0 16:23:28 10° NW 16:46:12 54° NNE 17:01:05 21° E visible
25 Apr 12.3 18:50:20 10° WNW 19:13:22 71° SW 19:13:49 71° SSW visible
25 Apr 13.9 21:25:12 10° W 21:26:33 12° W 21:26:33 12° W visible
26 Apr 12.8 16:44:40 10° NW 17:08:11 66° NE 17:21:04 28° ESE visible
26 Apr 12.6 19:12:39 10° WNW 19:33:48 56° SW 19:33:48 56° SW visible
27 Apr 12.7 17:05:58 10° NW 17:29:57 79° NE 17:41:04 36° ESE visible
27 Apr 12.9 19:35:31 10° WNW 19:53:48 43° SW 19:53:48 43° SW visible
28 Apr 12.6 17:27:29 10° NW 17:51:33 86° SW 18:01:05 42° SE visible
28 Apr 13.2 19:59:03 10° W 20:13:49 32° WSW 20:13:49 32° WSW visible
29 Apr 12.6 17:49:18 10° WNW 18:13:01 71° SW 18:21:06 45° SSE visible
29 Apr 13.5 20:23:27 10° W 20:33:51 23° WSW 20:33:51 23° WSW visible
30 Apr 13.1 15:44:46 10° NW 16:07:08 67° NE 16:28:10 10° ESE visible
30 Apr 12.7 18:11:31 10° WNW 18:34:27 57° SW 18:41:08 44° S visible
30 Apr 13.8 20:48:57 10° WSW 20:53:52 15° WSW 20:53:52 15° WSW visible
